Time,TemperatureF,DewpointF,PressureIn,WindDirection,WindDirectionDegrees,WindSpeedMPH,WindSpeedGustMPH,Humidity,HourlyPrecipIn,Conditions,Clouds,dailyrainin,SoftwareType,DateUTC
2013-03-11 00:00:00,52.2,33.6,30.11,NW,325,2.0,2.0,49,0.00,,,0.00,Wunderground v.1.15,2013-03-11 07:00:00,
2013-03-11 00:10:00,51.6,34.0,30.12,NW,325,0.0,5.0,51,0.00,,,0.00,Wunderground v.1.15,2013-03-11 07:10:00,
2013-03-11 00:15:00,51.0,33.5,30.12,NW,325,0.0,5.0,51,0.00,,,0.00,Wunderground v.1.15,2013-03-11 07:15:00,
2013-03-11 00:25:00,50.4,32.9,30.12,NW,325,1.0,5.0,51,0.00,,,0.00,Wunderground v.1.15,2013-03-11 07:25:00,
2013-03-11 00:30:00,50.7,33.2,30.12,NW,325,1.0,5.0,51,0.00,,,0.00,Wunderground v.1.15,2013-03-11 07:30:00,
2013-03-11 00:40:00,50.1,32.7,30.12,NW,325,1.0,5.0,51,0.00,,,0.00,Wunderground v.1.15,2013-03-11 07:40:00,
2013-03-11 00:50:00,50.7,33.2,30.12,NW,325,2.0,3.0,51,0.00,,,0.00,Wunderground v.1.15,2013-03-11 07:50:00,
2013-03-11 00:55:00,51.3,30.1,30.11,NW,312,2.0,3.0,44,0.00,,,0.00,Wunderground v.1.15,2013-03-11 07:55:00,
2013-03-11 01:05:00,52.0,30.7,30.11,NW,318,2.0,3.0,44,0.00,,,0.00,Wunderground v.1.15,2013-03-11 08:05:00,
2013-03-11 01:15:00,51.9,31.7,30.10,NW,318,1.0,6.0,46,0.00,,,0.00,Wunderground v.1.15,2013-03-11 08:15:00,
2013-03-11 01:20:00,50.8,32.8,30.10,NW,318,0.0,6.0,50,0.00,,,0.00,Wunderground v.1.15,2013-03-11 08:20:00,
2013-03-11 01:30:00,49.6,31.7,30.10,NW,318,1.0,6.0,50,0.00,,,0.00,Wunderground v.1.15,2013-03-11 08:30:00,
2013-03-11 01:35:00,49.6,31.2,30.10,NW,318,2.0,6.0,49,0.00,,,0.00,Wunderground v.1.15,2013-03-11 08:35:00,
2013-03-11 01:45:00,50.4,31.4,30.10,NW,318,2.0,6.0,48,0.00,,,0.00,Wunderground v.1.15,2013-03-11 08:45:00,
2013-03-11 01:55:00,50.2,32.3,30.10,NW,318,0.0,3.0,50,0.00,,,0.00,Wunderground v.1.15,2013-03-11 08:55:00,
2013-03-11 02:00:00,49.9,33.9,30.10,NW,318,0.0,3.0,54,0.00,,,0.00,Wunderground v.1.15,2013-03-11 09:00:00,
2013-03-11 02:10:00,49.1,33.2,30.11,NW,318,0.0,3.0,54,0.00,,,0.00,Wunderground v.1.15,2013-03-11 09:10:00,
2013-03-11 02:15:00,48.8,33.8,30.11,NW,318,0.0,3.0,56,0.00,,,0.00,Wunderground v.1.15,2013-03-11 09:15:00,
2013-03-11 02:25:00,48.3,33.8,30.11,NW,318,0.0,2.0,57,0.00,,,0.00,Wunderground v.1.15,2013-03-11 09:25:00,
2013-03-11 02:35:00,48.5,31.7,30.11,NW,318,0.0,2.0,52,0.00,,,0.00,Wunderground v.1.15,2013-03-11 09:35:00,
2013-03-11 02:45:00,48.2,32.3,30.11,NW,318,1.0,2.0,54,0.00,,,0.00,Wunderground v.1.15,2013-03-11 09:45:00,
2013-03-11 02:50:00,48.2,31.9,30.11,NW,318,1.0,5.0,53,0.00,,,0.00,Wunderground v.1.15,2013-03-11 09:50:00,
2013-03-11 03:00:00,49.4,33.0,30.10,NW,318,1.0,1.0,53,0.00,,,0.00,Wunderground v.1.15,2013-03-11 10:00:00,
2013-03-11 03:05:00,49.2,31.3,30.10,NW,318,1.0,2.0,50,0.00,,,0.00,Wunderground v.1.15,2013-03-11 10:05:00,
2013-03-11 03:15:00,48.6,31.3,30.09,NW,318,0.0,5.0,51,0.00,,,0.00,Wunderground v.1.15,2013-03-11 10:15:00,
2013-03-11 03:20:00,48.6,32.2,30.09,NW,318,0.0,5.0,53,0.00,,,0.00,Wunderground v.1.15,2013-03-11 10:20:00,
2013-03-11 03:30:00,48.6,33.6,30.09,NW,318,0.0,5.0,56,0.00,,,0.00,Wunderground v.1.15,2013-03-11 10:30:00,
2013-03-11 03:40:00,48.2,33.7,30.09,NW,318,0.0,5.0,57,0.00,,,0.00,Wunderground v.1.15,2013-03-11 10:40:00,
2013-03-11 03:50:00,47.9,33.8,30.09,NW,318,0.0,1.0,58,0.00,,,0.00,Wunderground v.1.15,2013-03-11 10:50:00,
2013-03-11 03:55:00,47.9,34.3,30.08,NW,318,1.0,1.0,59,0.00,,,0.00,Wunderground v.1.15,2013-03-11 10:55:00,
2013-03-11 04:05:00,47.9,34.3,30.08,NW,318,0.0,1.0,59,0.00,,,0.00,Wunderground v.1.15,2013-03-11 11:05:00,
2013-03-11 04:10:00,47.9,34.3,30.08,NW,318,0.0,1.0,59,0.00,,,0.00,Wunderground v.1.15,2013-03-11 11:10:00,
2013-03-11 04:20:00,47.6,34.8,30.08,NW,318,0.0,2.0,61,0.00,,,0.00,Wunderground v.1.15,2013-03-11 11:20:00,
2013-03-11 04:25:00,47.4,34.6,30.09,NW,318,0.0,2.0,61,0.00,,,0.00,Wunderground v.1.15,2013-03-11 11:25:00,
2013-03-11 04:35:00,47.4,35.0,30.09,NW,318,0.0,2.0,62,0.00,,,0.00,Wunderground v.1.15,2013-03-11 11:35:00,
2013-03-11 04:45:00,47.4,34.6,30.09,NW,318,0.0,2.0,61,0.00,,,0.00,Wunderground v.1.15,2013-03-11 11:45:00,
2013-03-11 04:50:00,47.3,34.9,30.09,NW,318,0.0,1.0,62,0.00,,,0.00,Wunderground v.1.15,2013-03-11 11:50:00,
2013-03-11 05:00:00,47.1,33.5,30.09,NW,318,0.0,1.0,59,0.00,,,0.00,Wunderground v.1.15,2013-03-11 12:00:00,
2013-03-11 05:05:00,47.1,34.3,30.09,NW,318,0.0,1.0,61,0.00,,,0.00,Wunderground v.1.15,2013-03-11 12:05:00,
2013-03-11 05:15:00,47.3,32.8,30.08,NW,318,0.0,2.0,57,0.00,,,0.00,Wunderground v.1.15,2013-03-11 12:15:00,
2013-03-11 05:25:00,47.4,31.1,30.09,NW,318,0.0,2.0,53,0.00,,,0.00,Wunderground v.1.15,2013-03-11 12:25:00,
2013-03-11 05:30:00,47.6,29.9,30.09,NW,318,0.0,2.0,50,0.00,,,0.00,Wunderground v.1.15,2013-03-11 12:30:00,
2013-03-11 05:40:00,48.3,29.0,30.09,NW,318,0.0,2.0,47,0.00,,,0.00,Wunderground v.1.15,2013-03-11 12:40:00,
2013-03-11 05:45:00,48.8,28.9,30.09,North,359,0.0,3.0,46,0.00,,,0.00,Wunderground v.1.15,2013-03-11 12:45:00,
2013-03-11 05:55:00,50.5,27.0,30.09,NE,49,1.0,3.0,40,0.00,,,0.00,Wunderground v.1.15,2013-03-11 12:55:00,
2013-03-11 06:05:00,51.0,29.8,30.09,ENE,58,1.0,3.0,44,0.00,,,0.00,Wunderground v.1.15,2013-03-11 13:05:00,
2013-03-11 06:10:00,50.4,29.8,30.09,ENE,58,0.0,3.0,45,0.00,,,0.00,Wunderground v.1.15,2013-03-11 13:10:00,
2013-03-11 06:20:00,49.5,29.0,30.09,ENE,58,0.0,3.0,45,0.00,,,0.00,Wunderground v.1.15,2013-03-11 13:20:00,
2013-03-11 06:25:00,49.4,29.5,30.10,ENE,58,0.0,3.0,46,0.00,,,0.00,Wunderground v.1.15,2013-03-11 13:25:00,
2013-03-11 06:35:00,49.4,28.9,30.10,NE,56,1.0,3.0,45,0.00,,,0.00,Wunderground v.1.15,2013-03-11 13:35:00,
2013-03-11 06:45:00,49.2,28.7,30.10,NE,55,0.0,3.0,45,0.00,,,0.00,Wunderground v.1.15,2013-03-11 13:45:00,
2013-03-11 06:50:00,49.1,27.5,30.10,NE,55,0.0,3.0,43,0.00,,,0.00,Wunderground v.1.15,2013-03-11 13:50:00,
2013-03-11 07:00:00,49.1,27.0,30.10,NE,55,0.0,3.0,42,0.00,,,0.00,Wunderground v.1.15,2013-03-11 14:00:00,
2013-03-11 07:05:00,49.2,28.2,30.10,NE,55,0.0,3.0,44,0.00,,,0.00,Wunderground v.1.15,2013-03-11 14:05:00,
2013-03-11 07:15:00,49.2,27.1,30.10,NE,55,1.0,3.0,42,0.00,,,0.00,Wunderground v.1.15,2013-03-11 14:15:00,
2013-03-11 07:20:00,49.5,26.1,30.10,NE,55,1.0,3.0,40,0.00,,,0.00,Wunderground v.1.15,2013-03-11 14:20:00,
2013-03-11 07:30:00,49.6,28.0,30.10,NE,55,1.0,1.0,43,0.00,,,0.00,Wunderground v.1.15,2013-03-11 14:30:00,
2013-03-11 07:40:00,49.2,28.2,30.10,NE,55,0.0,3.0,44,0.00,,,0.00,Wunderground v.1.15,2013-03-11 14:40:00,
2013-03-11 07:45:00,49.2,29.3,30.10,NE,55,0.0,3.0,46,0.00,,,0.00,Wunderground v.1.15,2013-03-11 14:45:00,
2013-03-11 07:55:00,49.2,27.6,30.10,NE,55,0.0,3.0,43,0.00,,,0.00,Wunderground v.1.15,2013-03-11 14:55:00,
2013-03-11 08:00:00,49.4,28.4,30.10,NE,55,1.0,3.0,44,0.00,,,0.00,Wunderground v.1.15,2013-03-11 15:00:00,
2013-03-11 08:10:00,50.5,28.8,30.10,NE,55,0.0,3.0,43,0.00,,,0.00,Wunderground v.1.15,2013-03-11 15:10:00,
2013-03-11 08:20:00,51.9,25.8,30.10,NE,55,0.0,2.0,36,0.00,,,0.00,Wunderground v.1.15,2013-03-11 15:20:00,
2013-03-11 08:25:00,52.3,25.4,30.11,NE,55,0.0,2.0,35,0.00,,,0.00,Wunderground v.1.15,2013-03-11 15:25:00,
2013-03-11 08:35:00,54.1,29.0,30.11,NE,55,0.0,2.0,38,0.00,,,0.00,Wunderground v.1.15,2013-03-11 15:35:00,
2013-03-11 08:40:00,55.3,30.1,30.11,NE,55,0.0,2.0,38,0.00,,,0.00,Wunderground v.1.15,2013-03-11 15:40:00,
2013-03-11 08:50:00,57.3,33.2,30.11,NE,55,0.0,2.0,40,0.00,,,0.00,Wunderground v.1.15,2013-03-11 15:50:00,
2013-03-11 08:55:00,58.4,35.4,30.10,NE,55,0.0,2.0,42,0.00,,,0.00,Wunderground v.1.15,2013-03-11 15:55:00,
2013-03-11 09:05:00,60.1,36.9,30.10,NE,55,0.0,2.0,42,0.00,,,0.00,Wunderground v.1.15,2013-03-11 16:05:00,
2013-03-11 09:15:00,61.2,26.9,30.10,NE,55,1.0,3.0,27,0.00,,,0.00,Wunderground v.1.15,2013-03-11 16:15:00,
2013-03-11 09:25:00,63.1,38.4,30.09,NE,56,0.0,3.0,40,0.00,,,0.00,Wunderground v.1.15,2013-03-11 16:25:00,
2013-03-11 09:35:00,63.4,38.6,30.09,NE,56,1.0,3.0,40,0.00,,,0.00,Wunderground v.1.15,2013-03-11 16:35:00,
2013-03-11 09:40:00,63.9,38.4,30.09,NE,56,1.0,3.0,39,0.00,,,0.00,Wunderground v.1.15,2013-03-11 16:40:00,
2013-03-11 09:50:00,64.8,41.2,30.09,NE,56,1.0,3.0,42,0.00,,,0.00,Wunderground v.1.15,2013-03-11 16:50:00,
2013-03-11 10:00:00,65.2,39.6,30.09,NE,56,1.0,1.0,39,0.00,,,0.00,Wunderground v.1.15,2013-03-11 17:00:00,
2013-03-11 10:05:00,65.6,40.0,30.09,NE,56,1.0,3.0,39,0.00,,,0.00,Wunderground v.1.15,2013-03-11 17:05:00,
2013-03-11 10:14:00,66.6,40.2,30.09,NE,56,1.0,3.0,38,0.00,,,0.00,Wunderground v.1.15,2013-03-11 17:14:00,
2013-03-11 10:20:00,66.4,40.7,30.09,ENE,61,1.0,2.0,39,0.00,,,0.00,Wunderground v.1.15,2013-03-11 17:20:00,
2013-03-11 10:30:00,66.9,41.8,30.08,ENE,61,1.0,2.0,40,0.00,,,0.00,Wunderground v.1.15,2013-03-11 17:30:00,
2013-03-11 10:39:00,67.1,32.9,30.08,NE,55,1.0,2.0,28,0.00,,,0.00,Wunderground v.1.15,2013-03-11 17:39:00,
2013-03-11 10:45:00,67.4,34.0,30.08,NE,55,1.0,3.0,29,0.00,,,0.00,Wunderground v.1.15,2013-03-11 17:45:00,
2013-03-11 10:55:00,67.8,33.5,30.08,North,356,1.0,3.0,28,0.00,,,0.00,Wunderground v.1.15,2013-03-11 17:55:00,
2013-03-11 11:05:00,67.4,35.7,30.08,North,352,2.0,3.0,31,0.00,,,0.00,Wunderground v.1.15,2013-03-11 18:05:00,
2013-03-11 11:10:00,67.3,34.8,30.08,NNW,339,3.0,3.0,30,0.00,,,0.00,Wunderground v.1.15,2013-03-11 18:10:00,
2013-03-11 11:20:00,67.8,36.0,30.08,NNW,335,2.0,7.0,31,0.00,,,0.00,Wunderground v.1.15,2013-03-11 18:20:00,
2013-03-11 11:30:00,68.3,34.8,30.07,North,349,2.0,7.0,29,0.00,,,0.00,Wunderground v.1.15,2013-03-11 18:30:00,
2013-03-11 11:35:00,68.4,36.6,30.07,NNW,342,2.0,7.0,31,0.00,,,0.00,Wunderground v.1.15,2013-03-11 18:35:00,
2013-03-11 11:44:00,68.6,35.9,30.07,WNW,298,3.0,7.0,30,0.00,,,0.00,Wunderground v.1.15,2013-03-11 18:44:00,
2013-03-11 11:50:00,68.4,35.7,30.07,NNW,346,3.0,7.0,30,0.00,,,0.00,Wunderground v.1.15,2013-03-11 18:50:00,
2013-03-11 12:00:00,68.6,35.9,30.07,NNW,332,3.0,7.0,30,0.00,,,0.00,Wunderground v.1.15,2013-03-11 19:00:00,
2013-03-11 12:10:00,68.6,41.3,30.07,NW,316,3.0,3.0,37,0.00,,,0.00,Wunderground v.1.15,2013-03-11 19:10:00,
2013-03-11 12:15:00,68.8,36.9,30.07,North,359,3.0,5.0,31,0.00,,,0.00,Wunderground v.1.15,2013-03-11 19:15:00,
2013-03-11 12:24:00,69.1,38.0,30.06,WNW,298,3.0,8.0,32,0.00,,,0.00,Wunderground v.1.15,2013-03-11 19:24:00,
2013-03-11 12:30:00,68.8,37.7,30.06,NNW,336,3.0,3.0,32,0.00,,,0.00,Wunderground v.1.15,2013-03-11 19:30:00,
2013-03-11 12:40:00,69.1,38.0,30.06,NW,313,2.0,8.0,32,0.00,,,0.00,Wunderground v.1.15,2013-03-11 19:40:00,
2013-03-11 12:50:00,69.3,37.3,30.06,WNW,301,3.0,8.0,31,0.00,,,0.00,Wunderground v.1.15,2013-03-11 19:50:00,
2013-03-11 13:00:00,69.1,38.0,30.05,North,359,3.0,3.0,32,0.00,,,0.00,Wunderground v.1.15,2013-03-11 20:00:00,
2013-03-11 13:05:00,69.1,39.5,30.05,NNW,342,3.0,5.0,34,0.00,,,0.00,Wunderground v.1.15,2013-03-11 20:05:00,
2013-03-11 13:15:00,68.9,37.0,30.05,NE,34,4.0,11.0,31,0.00,,,0.00,Wunderground v.1.15,2013-03-11 20:15:00,
2013-03-11 13:20:00,69.1,41.0,30.05,NNE,13,3.0,11.0,36,0.00,,,0.00,Wunderground v.1.15,2013-03-11 20:20:00,
2013-03-11 13:30:00,69.3,38.2,30.05,North,0,3.0,3.0,32,0.00,,,0.00,Wunderground v.1.15,2013-03-11 20:30:00,
2013-03-11 13:40:00,69.6,39.2,30.04,NW,316,4.0,4.0,33,0.00,,,0.00,Wunderground v.1.15,2013-03-11 20:40:00,
2013-03-11 13:45:00,69.9,37.0,30.04,NNW,336,3.0,12.0,30,0.00,,,0.00,Wunderground v.1.15,2013-03-11 20:45:00,
2013-03-11 13:55:00,70.4,38.3,30.03,NW,319,3.0,12.0,31,0.00,,,0.00,Wunderground v.1.15,2013-03-11 20:55:00,
2013-03-11 14:00:00,71.1,39.7,30.03,North,353,3.0,3.0,32,0.00,,,0.00,Wunderground v.1.15,2013-03-11 21:00:00,
2013-03-11 14:09:00,71.6,36.8,30.02,NNW,343,3.0,3.0,28,0.00,,,0.00,Wunderground v.1.15,2013-03-11 21:09:00,
2013-03-11 14:15:00,72.3,38.2,30.02,NNW,329,2.0,11.0,29,0.00,,,0.00,Wunderground v.1.15,2013-03-11 21:15:00,
2013-03-11 14:25:00,72.5,35.6,30.01,NW,322,3.0,3.0,26,0.00,,,0.00,Wunderground v.1.15,2013-03-11 21:25:00,
2013-03-11 14:35:00,72.5,34.7,30.01,NNW,347,3.0,11.0,25,0.00,,,0.00,Wunderground v.1.15,2013-03-11 21:35:00,
2013-03-11 14:40:00,73.0,34.1,30.01,East,97,3.0,3.0,24,0.00,,,0.00,Wunderground v.1.15,2013-03-11 21:40:00,
2013-03-11 14:50:00,74.0,38.8,30.01,NNW,342,2.0,2.0,28,0.00,,,0.00,Wunderground v.1.15,2013-03-11 21:50:00,
2013-03-11 14:55:00,74.0,34.9,30.00,North,0,2.0,8.0,24,0.00,,,0.00,Wunderground v.1.15,2013-03-11 21:55:00,
2013-03-11 15:04:00,75.1,39.8,30.00,ESE,120,2.0,5.0,28,0.00,,,0.00,Wunderground v.1.15,2013-03-11 22:04:00,
2013-03-11 15:10:00,74.6,41.1,30.00,SSW,206,2.0,8.0,30,0.00,,,0.00,Wunderground v.1.15,2013-03-11 22:10:00,
2013-03-11 15:20:00,74.4,38.2,30.00,SSE,165,2.0,7.0,27,0.00,,,0.00,Wunderground v.1.15,2013-03-11 22:20:00,
2013-03-11 15:29:00,74.0,31.6,30.00,NW,306,3.0,3.0,21,0.00,,,0.00,Wunderground v.1.15,2013-03-11 22:29:00,
2013-03-11 15:35:00,74.2,34.0,30.00,NW,312,2.0,6.0,23,0.00,,,0.00,Wunderground v.1.15,2013-03-11 22:35:00,
2013-03-11 15:45:00,74.0,32.7,29.99,NNW,329,2.0,10.0,22,0.00,,,0.00,Wunderground v.1.15,2013-03-11 22:45:00,
2013-03-11 15:55:00,73.5,29.9,29.99,North,356,2.0,10.0,20,0.00,,,0.00,Wunderground v.1.15,2013-03-11 22:55:00,
2013-03-11 16:05:00,72.8,33.9,29.99,NNW,329,3.0,10.0,24,0.00,,,0.00,Wunderground v.1.15,2013-03-11 23:05:00,
2013-03-11 16:15:00,72.7,33.8,29.99,NNW,346,3.0,10.0,24,0.00,,,0.00,Wunderground v.1.15,2013-03-11 23:15:00,
2013-03-11 16:25:00,72.7,33.8,29.99,NE,49,3.0,5.0,24,0.00,,,0.00,Wunderground v.1.15,2013-03-11 23:25:00,
2013-03-11 16:35:00,70.9,36.1,29.99,WNW,289,3.0,10.0,28,0.00,,,0.00,Wunderground v.1.15,2013-03-11 23:35:00,
2013-03-11 16:40:00,70.1,33.6,29.99,WNW,292,4.0,10.0,26,0.00,,,0.00,Wunderground v.1.15,2013-03-11 23:40:00,
2013-03-11 16:50:00,68.9,33.5,29.99,NW,320,4.0,4.0,27,0.00,,,0.00,Wunderground v.1.15,2013-03-11 23:50:00,
2013-03-11 17:00:00,68.4,34.9,29.99,WNW,298,3.0,3.0,29,0.00,,,0.00,Wunderground v.1.15,2013-03-12 00:00:00,
2013-03-11 17:05:00,68.1,33.7,29.99,NNW,330,3.0,10.0,28,0.00,,,0.00,Wunderground v.1.15,2013-03-12 00:05:00,
2013-03-11 17:15:00,67.8,34.4,29.98,NW,323,2.0,10.0,29,0.00,,,0.00,Wunderground v.1.15,2013-03-12 00:15:00,
2013-03-11 17:20:00,67.6,32.4,29.98,NNW,335,2.0,10.0,27,0.00,,,0.00,Wunderground v.1.15,2013-03-12 00:20:00,
2013-03-11 17:30:00,67.4,34.0,29.98,NNW,344,3.0,3.0,29,0.00,,,0.00,Wunderground v.1.15,2013-03-12 00:30:00,
2013-03-11 17:35:00,67.3,35.6,29.98,NW,323,2.0,10.0,31,0.00,,,0.00,Wunderground v.1.15,2013-03-12 00:35:00,
2013-03-11 17:44:00,66.8,39.0,29.98,NNW,328,1.0,3.0,36,0.00,,,0.00,Wunderground v.1.15,2013-03-12 00:44:00,
2013-03-11 17:50:00,66.4,40.0,29.98,WNW,298,1.0,10.0,38,0.00,,,0.00,Wunderground v.1.15,2013-03-12 00:50:00,
2013-03-11 17:59:00,66.0,39.7,29.98,SSE,150,2.0,10.0,38,0.00,,,0.00,Wunderground v.1.15,2013-03-12 00:59:00,
2013-03-11 18:05:00,65.6,40.0,29.98,West,277,2.0,10.0,39,0.00,,,0.00,Wunderground v.1.15,2013-03-12 01:05:00,
2013-03-11 18:15:00,64.8,40.5,29.98,NNW,330,2.0,10.0,41,0.00,,,0.00,Wunderground v.1.15,2013-03-12 01:15:00,
2013-03-11 18:25:00,64.2,41.8,29.98,North,354,2.0,10.0,44,0.00,,,0.00,Wunderground v.1.15,2013-03-12 01:25:00,
2013-03-11 18:30:00,63.7,41.9,29.98,NW,323,2.0,10.0,45,0.00,,,0.00,Wunderground v.1.15,2013-03-12 01:30:00,
2013-03-11 18:40:00,63.1,43.1,29.98,West,263,2.0,10.0,48,0.00,,,0.00,Wunderground v.1.15,2013-03-12 01:40:00,
2013-03-11 18:45:00,62.7,42.7,29.98,NW,304,2.0,10.0,48,0.00,,,0.00,Wunderground v.1.15,2013-03-12 01:45:00,
2013-03-11 18:55:00,62.1,43.2,29.99,NNW,335,1.0,10.0,50,0.00,,,0.00,Wunderground v.1.15,2013-03-12 01:55:00,
2013-03-11 19:00:00,61.6,43.3,29.99,NNW,335,0.0,10.0,51,0.00,,,0.00,Wunderground v.1.15,2013-03-12 02:00:00,
2013-03-11 19:09:00,60.5,43.3,29.98,NNW,336,1.0,1.0,53,0.00,,,0.00,Wunderground v.1.15,2013-03-12 02:09:00,
2013-03-11 19:15:00,59.8,43.6,29.98,NNW,335,0.0,6.0,55,0.00,,,0.00,Wunderground v.1.15,2013-03-12 02:15:00,
2013-03-11 19:25:00,58.4,43.7,29.98,NNW,336,0.0,6.0,58,0.00,,,0.00,Wunderground v.1.15,2013-03-12 02:25:00,
2013-03-11 19:30:00,58.1,43.4,29.98,NNW,335,0.0,6.0,58,0.00,,,0.00,Wunderground v.1.15,2013-03-12 02:30:00,
2013-03-11 19:40:00,57.3,43.1,29.98,NNW,337,0.0,6.0,59,0.00,,,0.00,Wunderground v.1.15,2013-03-12 02:40:00,
2013-03-11 19:45:00,57.2,42.1,29.98,NNW,337,0.0,6.0,57,0.00,,,0.00,Wunderground v.1.15,2013-03-12 02:45:00,
2013-03-11 19:55:00,56.6,42.4,29.98,NNW,337,0.0,2.0,59,0.00,,,0.00,Wunderground v.1.15,2013-03-12 02:55:00,
2013-03-11 20:00:00,56.6,41.5,29.98,NNW,336,1.0,1.0,57,0.00,,,0.00,Wunderground v.1.15,2013-03-12 03:00:00,
2013-03-11 20:10:00,56.6,42.4,29.99,NNW,336,1.0,2.0,59,0.00,,,0.00,Wunderground v.1.15,2013-03-12 03:10:00,
2013-03-11 20:20:00,56.0,41.9,29.99,NNW,336,1.0,3.0,59,0.00,,,0.00,Wunderground v.1.15,2013-03-12 03:20:00,
2013-03-11 20:25:00,55.7,42.5,29.98,NNW,336,1.0,3.0,61,0.00,,,0.00,Wunderground v.1.15,2013-03-12 03:25:00,
2013-03-11 20:35:00,54.4,42.1,29.98,NNW,336,1.0,3.0,63,0.00,,,0.00,Wunderground v.1.15,2013-03-12 03:35:00,
2013-03-11 20:40:00,54.4,42.1,29.98,NNW,336,1.0,3.0,63,0.00,,,0.00,Wunderground v.1.15,2013-03-12 03:40:00,
2013-03-11 20:49:00,54.7,41.5,29.98,NNW,336,2.0,2.0,61,0.00,,,0.00,Wunderground v.1.15,2013-03-12 03:49:00,
2013-03-11 20:55:00,54.4,41.6,29.98,NNW,336,1.0,3.0,62,0.00,,,0.00,Wunderground v.1.15,2013-03-12 03:55:00,
2013-03-11 21:00:00,54.4,40.8,29.98,NNW,336,2.0,2.0,60,0.00,,,0.00,Wunderground v.1.15,2013-03-12 04:00:00,
2013-03-11 21:05:00,54.4,41.2,29.98,NNW,336,2.0,3.0,61,0.00,,,0.00,Wunderground v.1.15,2013-03-12 04:05:00,
2013-03-11 21:10:00,54.4,41.2,29.98,NNW,336,1.0,1.0,61,0.00,,,0.00,Wunderground v.1.15,2013-03-12 04:10:00,
2013-03-11 21:20:00,53.9,40.8,29.98,NNW,336,0.0,3.0,61,0.00,,,0.00,Wunderground v.1.15,2013-03-12 04:20:00,
2013-03-11 21:24:00,53.8,40.7,29.98,NNW,336,1.0,3.0,61,0.00,,,0.00,Wunderground v.1.15,2013-03-12 04:24:00,
2013-03-11 21:30:00,53.5,41.2,29.98,NNW,336,1.0,3.0,63,0.00,,,0.00,Wunderground v.1.15,2013-03-12 04:30:00,
2013-03-11 21:39:00,52.6,40.8,29.99,NNW,336,0.0,3.0,64,0.00,,,0.00,Wunderground v.1.15,2013-03-12 04:39:00,
2013-03-11 21:45:00,52.3,41.3,29.99,NNW,336,0.0,3.0,66,0.00,,,0.00,Wunderground v.1.15,2013-03-12 04:45:00,
2013-03-11 21:55:00,52.3,40.5,29.99,NNW,336,0.0,3.0,64,0.00,,,0.00,Wunderground v.1.15,2013-03-12 04:55:00,
2013-03-11 22:00:00,52.6,39.5,29.99,NNW,336,0.0,3.0,61,0.00,,,0.00,Wunderground v.1.15,2013-03-12 05:00:00,
2013-03-11 22:10:00,52.9,39.4,29.99,NNW,336,0.0,3.0,60,0.00,,,0.00,Wunderground v.1.15,2013-03-12 05:10:00,
2013-03-11 22:20:00,53.1,40.0,29.99,NNW,336,1.0,1.0,61,0.00,,,0.00,Wunderground v.1.15,2013-03-12 05:20:00,
2013-03-11 22:30:00,53.1,39.1,29.99,NNW,336,0.0,1.0,59,0.00,,,0.00,Wunderground v.1.15,2013-03-12 05:30:00,
2013-03-11 22:40:00,53.2,39.2,29.98,NNW,336,0.0,1.0,59,0.00,,,0.00,Wunderground v.1.15,2013-03-12 05:40:00,
2013-03-11 22:50:00,53.1,40.0,29.98,NNW,336,0.0,2.0,61,0.00,,,0.00,Wunderground v.1.15,2013-03-12 05:50:00,
2013-03-11 23:00:00,53.1,39.6,29.98,NNW,336,0.0,2.0,60,0.00,,,0.00,Wunderground v.1.15,2013-03-12 06:00:00,
2013-03-11 23:05:00,53.3,39.8,29.98,NNW,336,0.0,2.0,60,0.00,,,0.00,Wunderground v.1.15,2013-03-12 06:05:00,
2013-03-11 23:15:00,53.2,40.1,29.98,NNW,336,0.0,2.0,61,0.00,,,0.00,Wunderground v.1.15,2013-03-12 06:15:00,
2013-03-11 23:20:00,53.2,39.7,29.98,NNW,336,0.0,0.0,60,0.00,,,0.00,Wunderground v.1.15,2013-03-12 06:20:00,
2013-03-11 23:29:00,53.9,39.0,29.98,NNW,336,0.0,0.0,57,0.00,,,0.00,Wunderground v.1.15,2013-03-12 06:29:00,
2013-03-11 23:35:00,54.2,39.7,29.98,NNW,336,0.0,0.0,58,0.00,,,0.00,Wunderground v.1.15,2013-03-12 06:35:00,
2013-03-11 23:45:00,53.9,40.3,29.98,NNW,336,0.0,2.0,60,0.00,,,0.00,Wunderground v.1.15,2013-03-12 06:45:00,
2013-03-11 23:55:00,53.5,39.9,29.98,NNW,336,0.0,2.0,60,0.00,,,0.00,Wunderground v.1.15,2013-03-12 06:55:00,